Voltar ao catálogo

KUIPER-00626

AtivoComunicaçõesLEO
NORAD 69781·PAYLOAD·🇺🇸 United States

Lançado Jul 2, 2026 de Cape Canaveral Space Force Station

Loading…

Próximas Passagens (próximas 24 horas)

TLE

AtualizadoSource: CelesTrak SupGP

Época: Sep 14, 2026, 23:06 UTC

1 69781C 26151U   26257.96259259  .00001600  00000+0  20925-3 0  2579
2 69781  51.8968 251.1617 0001155 107.1466 104.7586 14.79958341    13

Acompanhe KUIPER-00626 em tempo real com AllMySat

Download on the App Store